Deering, AK

4:23 PM AKST on February 20, 2017 (GMT -0900)
Deering (New)

Weather History for PADE - May, 2012

Change the Weather History Date:

Thursday, May 3, 2012

  Actual Average (PAOT) Record (PAOT)
Temperature  
Mean Temperature 24 °F -  
Max Temperature 36 °F 30 °F 52 °F (2004)
Min Temperature 12 °F 15 °F -8 °F (1944)
Degree Days  
Heating Degree Days 42    
Moisture  
Dew Point 2 °F    
Average Humidity 43    
Maximum Humidity 67    
Minimum Humidity 27    
Precipitation  
Precipitation 0.00 in - - ()
Sea Level Pressure  
Sea Level Pressure 29.82 in    
Wind  
Wind Speed 9 mph (West)    
Max Wind Speed 13 mph    
Max Gust Speed -    
Visibility 7 miles    
Events Snow    
Averages and records for this station are not official NWS values.
T = Trace of Precipitation, MM = Missing Value Source: NWS Daily Summary

Daily Weather History Graph

Daily Weather History Graph

Search for Another Location

Airport or City:

Trip Planner

Search our weather history database for the weather conditions in past years. The results will help you decide how hot, cold, wet, or windy it might be!

Date:

Astronomy

May. 03, 2012 Rise Set
Actual Time 5:56 AM AKDT 11:41 PM AKDT
Civil Twilight 4:26 AM AKDT 1:15 AM AKDT
Nautical Twilight Sun does not rise Sun does not rise
Astronomical Twilight Sun does not rise Sun does not rise
Moon 8:32 PM AKDT (5/3) 5:17 AM AKDT (5/3)
Length of Visible Light 20h 49m
Length of Day
17h 45m
Waxing Gibbous, 92% of the Moon is Illuminated
May 3
Waxing Gibbous
May 5
Full
May 12
Last Quarter
May 20
New
May 28
First Quarter

Hourly Weather History & Observations

Time (AKDT) Temp. Windchill Dew Point Humidity Pressure Visibility Wind Dir Wind Speed Gust Speed Precip Events Conditions
12:53 AM 15.1 °F 1.1 °F 3.0 °F 59% 29.83 in 7.0 mi WSW 12.7 mph - 0.00 in Snow Light Snow
1:53 AM 15.1 °F 2.5 °F 3.9 °F 61% 29.83 in 8.0 mi West 10.4 mph - 0.00 in   Overcast
2:53 AM 17.1 °F 3.6 °F 3.0 °F 54% 29.83 in 9.0 mi West 12.7 mph - 0.00 in   Overcast
3:53 AM 15.1 °F 1.1 °F 3.0 °F 59% 29.82 in 4.0 mi West 12.7 mph - 0.00 in Snow Light Snow
4:14 AM 12.2 °F -2.5 °F 3.2 °F 67% 29.82 in 3.0 mi West 12.7 mph - 0.00 in Snow Light Snow
4:53 AM 15.1 °F 3.3 °F 1.9 °F 56% 29.82 in 8.0 mi WSW 9.2 mph - 0.00 in   Overcast
5:53 AM 14.0 °F 3.9 °F 1.0 °F 56% 29.81 in 3.0 mi WSW 6.9 mph - 0.00 in Snow Light Snow
6:14 AM 17.6 °F 8.2 °F -0.4 °F 45% 29.81 in 10.0 mi WSW 6.9 mph - 0.00 in   Overcast
6:53 AM 21.0 °F 14.6 °F -0.0 °F 40% 29.81 in 3.0 mi SSW 4.6 mph - 0.00 in Snow Light Snow
7:00 AM 21.2 °F 14.9 °F -0.4 °F 39% 29.81 in 2.5 mi SW 4.6 mph - 0.00 in Snow Light Snow
7:35 AM 19.4 °F 12.8 °F -0.4 °F 42% 29.81 in 3.0 mi WSW 4.6 mph - 0.00 in Snow Light Snow
7:53 AM 19.9 °F 12.1 °F -0.0 °F 42% 29.81 in 4.0 mi WSW 5.8 mph - 0.00 in Snow Light Snow
8:21 AM 19.4 °F 10.4 °F -0.4 °F 42% 29.80 in 8.0 mi WSW 6.9 mph - 0.00 in   Mostly Cloudy
8:30 AM 21.2 °F 13.6 °F -0.4 °F 39% 29.80 in 9.0 mi WSW 5.8 mph - 0.00 in   Overcast
8:53 AM 21.9 °F 17.2 °F -0.0 °F 38% 29.81 in 6.0 mi SW 3.5 mph - 0.00 in   Haze
9:51 AM 15.8 °F 3.4 °F 1.4 °F 53% 29.80 in 2.0 mi West 10.4 mph - 0.00 in Snow Light Snow
9:53 AM 15.1 °F 2.5 °F 1.0 °F 54% 29.81 in 1.8 mi West 10.4 mph - 0.00 in Snow Light Snow
10:32 AM 17.6 °F 5.7 °F 1.4 °F 49% 29.80 in 4.0 mi West 10.4 mph - 0.00 in   Overcast
11:22 AM 19.4 °F 8.6 °F 1.4 °F 46% 29.80 in 9.0 mi West 9.2 mph - N/A   Scattered Clouds
11:53 AM 23.0 °F 13.9 °F 1.9 °F 40% 29.81 in 10.0 mi West 8.1 mph - N/A   Clear
12:53 PM 23.0 °F 14.7 °F 3.0 °F 42% 29.81 in 2.5 mi West 6.9 mph - 0.00 in Snow Light Snow
1:00 PM 26.6 °F 19.1 °F 3.2 °F 37% 29.81 in 3.0 mi West 6.9 mph - 0.00 in Snow Light Snow
1:10 PM 23.0 °F 14.7 °F 3.2 °F 43% 29.81 in 2.5 mi West 6.9 mph - 0.00 in Snow Light Snow
1:24 PM 24.8 °F 16.9 °F 3.2 °F 40% 29.81 in 5.0 mi West 6.9 mph - 0.00 in   Haze
1:34 PM 24.8 °F 16.1 °F 3.2 °F 40% 29.81 in 10.0 mi West 8.1 mph - 0.00 in   Mostly Cloudy
1:53 PM 24.1 °F 15.2 °F 3.9 °F 42% 29.81 in 10.0 mi West 8.1 mph - 0.00 in   Scattered Clouds
2:53 PM 32.0 °F 27.5 °F 3.9 °F 31% 29.82 in 5.0 mi WNW 4.6 mph - 0.00 in Snow Light Snow
3:04 PM 32.0 °F 25.6 °F 5.0 °F 32% 29.82 in 4.0 mi NW 6.9 mph - 0.00 in Snow Light Snow
3:18 PM 32.0 °F 27.5 °F 3.2 °F 30% 29.82 in 9.0 mi WNW 4.6 mph - 0.00 in   Scattered Clouds
3:53 PM 35.1 °F 31.0 °F 3.9 °F 27% 29.83 in 10.0 mi WNW 4.6 mph - 0.00 in   Clear
4:53 PM 34.0 °F 28.8 °F 3.9 °F 28% 29.83 in 10.0 mi WNW 5.8 mph - N/A   Clear
5:53 PM 32.0 °F 25.6 °F 3.9 °F 31% 29.83 in 10.0 mi WNW 6.9 mph - N/A   Mostly Cloudy
6:53 PM 30.0 °F 22.4 °F 5.0 °F 35% 29.83 in 10.0 mi WNW 8.1 mph - N/A   Clear
7:53 PM 28.9 °F 21.9 °F 5.0 °F 36% 29.83 in 10.0 mi WNW 6.9 mph - N/A   Partly Cloudy
8:53 PM 26.1 °F 18.4 °F 3.9 °F 39% 29.84 in 10.0 mi West 6.9 mph - N/A   Clear
9:53 PM 19.0 °F 10.0 °F 3.9 °F 52% 29.84 in 10.0 mi West 6.9 mph - N/A   Overcast
10:53 PM 25.0 °F 17.1 °F 3.9 °F 41% 29.85 in 8.0 mi SW 6.9 mph - N/A   Overcast
11:09 PM 24.8 °F 17.9 °F 3.2 °F 40% 29.85 in 4.0 mi SW 5.8 mph - N/A   Haze
11:16 PM 23.0 °F 15.8 °F 3.2 °F 43% 29.85 in 7.0 mi SSW 5.8 mph - N/A   Scattered Clouds
11:53 PM 23.0 °F 14.7 °F 1.0 °F 39% 29.86 in 10.0 mi WSW 6.9 mph - N/A   Mostly Cloudy